TimeEST,TemperatureF,Dew PointF,Humidity,Sea Level PressureIn,VisibilityMPH,Wind Direction,Wind SpeedMPH,Gust SpeedMPH,PrecipitationIn,Events,Conditions,WindDirDegrees,DateUTC
12:56 AM,42.1,25.0,51,30.29,10.0,SSW,12.7,18.4,N/A,,Clear,200,2013-01-19 05:56:00
1:56 AM,42.1,25.0,51,30.28,10.0,SSW,12.7,18.4,N/A,,Clear,200,2013-01-19 06:56:00
2:56 AM,42.1,25.0,51,30.27,10.0,South,8.1,-,N/A,,Clear,190,2013-01-19 07:56:00
3:56 AM,43.0,25.0,49,30.26,10.0,SSW,15.0,23.0,N/A,,Clear,200,2013-01-19 08:56:00
4:56 AM,43.0,26.1,51,30.26,10.0,SW,11.5,19.6,N/A,,Clear,220,2013-01-19 09:56:00
5:56 AM,42.1,26.1,53,30.26,10.0,SSW,10.4,18.4,N/A,,Clear,210,2013-01-19 10:56:00
6:56 AM,39.9,25.0,55,30.26,10.0,SW,6.9,-,N/A,,Clear,220,2013-01-19 11:56:00
7:56 AM,39.9,26.1,58,30.26,10.0,SSW,13.8,20.7,N/A,,Clear,200,2013-01-19 12:56:00
8:56 AM,42.1,27.0,55,30.25,10.0,SSW,16.1,-,N/A,,Clear,200,2013-01-19 13:56:00
9:56 AM,46.0,26.1,46,30.25,10.0,SSW,15.0,20.7,N/A,,Clear,210,2013-01-19 14:56:00
10:56 AM,48.9,27.0,43,30.24,10.0,SSW,13.8,-,N/A,,Clear,210,2013-01-19 15:56:00
11:56 AM,51.1,27.0,39,30.19,10.0,SSW,19.6,23.0,N/A,,Clear,210,2013-01-19 16:56:00
12:56 PM,54.0,28.0,37,30.14,10.0,South,18.4,21.9,N/A,,Clear,190,2013-01-19 17:56:00
1:56 PM,55.0,27.0,34,30.10,10.0,SSW,19.6,28.8,N/A,,Clear,200,2013-01-19 18:56:00
2:56 PM,55.9,26.1,32,30.07,10.0,SSW,19.6,26.5,N/A,,Clear,200,2013-01-19 19:56:00
3:56 PM,55.9,25.0,30,30.04,10.0,SSW,16.1,29.9,N/A,,Clear,200,2013-01-19 20:56:00
4:56 PM,55.0,27.0,34,30.03,10.0,SSW,19.6,26.5,N/A,,Partly Cloudy,210,2013-01-19 21:56:00
5:56 PM,53.1,26.1,35,30.01,10.0,SSW,16.1,27.6,N/A,,Partly Cloudy,200,2013-01-19 22:56:00
6:56 PM,53.1,27.0,37,30.01,10.0,SSW,15.0,24.2,N/A,,Clear,200,2013-01-19 23:56:00
7:56 PM,52.0,27.0,38,30.03,10.0,SW,15.0,-,N/A,,Partly Cloudy,220,2013-01-20 00:56:00
8:56 PM,51.1,26.1,38,30.04,10.0,SW,15.0,21.9,N/A,,Partly Cloudy,220,2013-01-20 01:56:00
9:56 PM,50.0,27.0,41,30.03,10.0,SW,15.0,24.2,N/A,,Partly Cloudy,220,2013-01-20 02:56:00
10:56 PM,48.9,28.0,44,30.03,10.0,SW,16.1,23.0,N/A,,Partly Cloudy,230,2013-01-20 03:56:00
11:56 PM,48.9,28.9,46,30.04,10.0,WSW,17.3,24.2,N/A,,Partly Cloudy,240,2013-01-20 04:56:00